Find Starlink 34020

NORAD ID: 63939 Int'l Des: 2025-098 Owner: SPXS Country: US Constellation: starlink operational
LEOCIRCULAR

实时位置

正在加载3D地球...

关于 Starlink 34020

正在加载描述...

即将过境

Passes for default location (London). Set your location on the main map for personalized predictions.

高度历史

Loading altitude history...

两行轨道根数

1 63939U 25098P 26106.93397970 .00004399 00000-0 37622-3 0 9994
2 63939 70.0014 177.9242 0003988 268.6276 91.4426 14.98329759 52281
Epoch: Apr 16, 2026 • Age: 12 hours

当前状态

高度 585.8 km
速度 7.57 km/s
星下点 67.44°N, 60.66°W
发射日期 May 13, 2025
运行时间 0.9 years
类型 internet

技术详情

分类 Payload
质量 575.00 kg
干质量 530.00 kg
总质量 575.00 kg
长度 0.30 m
直径 4.10 m
跨度 29.00 m
形状 Box + pan
制造商 SPXS
平台类型 Starlink V2MO
阶段状态 In Orbit
所有者/国家 SPXS/US

Most Searched